This is the latest recevied weather packets stored in our database for station/object W2GRK-15. If no packets are shown the sender has not sent any weather packets the latest 10 day(s).
| Time | Temp. | Humidity | Pressure | Rain* | Wind** | Luminosity | Snow |
|---|---|---|---|---|---|---|---|
| 1777484962 | 16.67° C | 60% | 1014.3 hPa | 0 mm | - | 556 W/m² | - |
| 1777484608 | 16.11° C | 60% | 1014 hPa | 0 mm | - | 703 W/m² | - |
| 1777484302 | 16.67° C | 60% | 1014 hPa | 0 mm | - | 411 W/m² | - |
| 1777484237 | 16.67° C | 61% | 1014.1 hPa | 0 mm | - | 502 W/m² | - |
| 1777483947 | 16.67° C | 60% | 1014.2 hPa | 0 mm | - | 424 W/m² | - |
| 1777483838 | 16.67° C | 60% | 1014.1 hPa | 0 mm | - | 497 W/m² | - |
| 1777483770 | 16.67° C | 60% | 1014.2 hPa | 0 mm | - | 461 W/m² | - |
| 1777483287 | 16.11° C | 61% | 1014.5 hPa | 0 mm | - | 753 W/m² | - |
| 1777483222 | 16.11° C | 60% | 1014.4 hPa | 0 mm | - | 740 W/m² | - |
| 1777482980 | 16.11° C | 60% | 1014.4 hPa | 0 mm | - | 638 W/m² | - |
| 1777482916 | 16.11° C | 61% | 1014.5 hPa | 0 mm | - | 674 W/m² | - |
| 1777482738 | 16.67° C | 58% | 1014.4 hPa | 0 mm | - | 713 W/m² | - |
| 1777482448 | 16.67° C | 58% | 1014.4 hPa | 0 mm | - | 645 W/m² | - |
| 1777482319 | 17.22° C | 57% | 1014.4 hPa | 0 mm | - | 607 W/m² | - |
| 1777482206 | 16.67° C | 60% | 1014.4 hPa | 0 mm | - | 609 W/m² | - |
| 1777482097 | 16.67° C | 57% | 1014.4 hPa | 0 mm | - | 719 W/m² | - |
| 1777481965 | 16.67° C | 59% | 1014.4 hPa | 0 mm | - | 747 W/m² | - |
| 1777481807 | 16.67° C | 56% | 1014.4 hPa | 0 mm | - | 728 W/m² | - |
| 1777480885 | 16.67° C | 60% | 1014.7 hPa | 0 mm | - | 688 W/m² | - |
| 1777480796 | 16.67° C | 58% | 1014.8 hPa | 0 mm | - | 693 W/m² | - |
| 1777480486 | 16.67° C | 57% | 1014.9 hPa | 0 mm | - | 594 W/m² | - |
| 1777480402 | 16.67° C | 56% | 1014.9 hPa | 0 mm | - | 515 W/m² | - |
| 1777479806 | 17.22° C | 52% | 1014.9 hPa | 0 mm | - | 451 W/m² | - |
| 1777479564 | 17.78° C | 52% | 1015.1 hPa | 0 mm | - | 455 W/m² | - |
| 1777479500 | 17.78° C | 53% | 1015.2 hPa | 0 mm | - | 435 W/m² | - |
* Rain latest hour (hover to see other rain measurements)
** Current wind speed in m/s (hover to see current wind gust speed)